Regional Weather Roundup
Issued by NWS

Home | Current Version | Previous Version | Text Only | Print | Product List | Glossary On
Versions: 1 2 3 4 5 6 7 8 9 10 11 12 13 14 15 16 17 18 19 20 21 22 23 24 25 26 27 28 29 30 31 32 33 34 35 36 37 38 39 40 41 42 43 44 45 46 47 48 49 50
000
ASUS42 KFFC 280103
RWRGA
WEATHER ROUNDUP FOR GEORGIA
NATIONAL WEATHER SERVICE PEACHTREE CITY GA
800 PM EST FRI FEB 27 2015

NOTE: "FAIR" INDICATES FEW OR NO CLOUDS BELOW 12,000 FEET WITH NO
SIGNIFICANT WEATHER AND/OR OBSTRUCTIONS TO VISIBILITY.

* = USE WITH CAUTION. THE STATIONS MARKED WITH AN ASTERISK MAY NOT
REPORT WEATHER SUCH AS PRECIPITATION, FOG, OR THUNDER AND ARE NOT
QUALITY CONTROLLED BY NWS.

THE REMARK "TC" DENOTES TEMPERATURE READING IN DEGREES CELSIUS.

GAZ001>058-280200-
NORTH GEORGIA

CITY           SKY/WX    TMP DP  RH WIND       PRES   REMARKS
ATLANTA        PTCLDY    39  21  48 NW10      30.40R WCI  32
ATHENS         CLEAR     44  20  38 NW3       30.37R
CHAMBLEE       CLEAR     37  21  52 NW8       30.39R WCI  31
PEACHTREE CITY CLEAR     41  19  41 N12       30.40R
ROME           CLEAR     33  18  53 N5        30.44R WCI  29
WEST ATLANTA   CLEAR     37  20  50 N6        30.41R WCI  32
GAINESVILLE    CLEAR     38  23  55 W10       30.38R WCI  31
CARTERSVILLE   CLEAR     33  17  51 VRB5      30.44R WCI  29


CITY           SKY/WX    TMP DP  RH WIND       PRES   REMARKS
DALTON*        CLEAR     32  21  64 N9        30.46R WCI  24
LAWRENCEVILLE* CLEAR     39  19  45 CALM      30.37R
MARIETTA       CLEAR     35  20  55 NW6       30.40R WCI  30
KENNESAW*      CLEAR     34  18  51 NW3       30.42R
$$

GAZ059>098-102>109-280200-
CENTRAL GEORGIA

CITY           SKY/WX    TMP DP  RH WIND       PRES   REMARKS
AUGUSTA-BUSH   PTCLDY    43  36  76 SE5       30.38R
AUGUSTA-DANIEL PTCLDY    51  32  48 N5        30.38R
COLUMBUS       CLEAR     47  24  40 N8        30.36R
MACON          PTCLDY    46  31  55 N7        30.35R
ROBINS AFB     PTCLDY    48  36  64 NE2       30.31F


CITY           SKY/WX    TMP DP  RH WIND       PRES   REMARKS
LAGRANGE*      CLEAR     45  26  47 N5        30.39R
SYLVANIA*      MOCLDY    44  40  85 E3        30.39R
MILLEDGEVILLE* PTCLDY    43  37  81 CALM      30.37R
$$

GAZ099>101-110>166-280200-
SOUTH GEORGIA

CITY           SKY/WX    TMP DP  RH WIND       PRES   REMARKS
SAVANNAH       MOCLDY    44  35  70 E7        30.40R
VALDOSTA       CLOUDY    48  39  71 NE6       30.34R
ALMA           CLOUDY    43  39  86 CALM      30.36R
ST SIMONS      CLOUDY    47  38  71 NE8       30.37R
FT STEWART     MOCLDY    44  37  78 E2        30.37R
ALBANY         MOCLDY    50  36  58 NE5       30.35R
HUNTER AFB     MOCLDY    45  36  71 NE5       30.37R
MOODY AFB      CLOUDY    47  39  73 NE5       30.33R
BRUNSWICK      CLOUDY    46  37  71 NE5       30.38R


CITY           SKY/WX    TMP DP  RH WIND       PRES   REMARKS
BAINBRIDGE*    CLOUDY    52  43  71 E5        30.33R
MOULTRIE*      MOCLDY    46  43  87 CALM      30.34R
VIDALIA*       MOCLDY    46  39  76 CALM      30.36R
WAYCROSS*      CLOUDY    48  42  79 E6        30.36R
DOUGLAS*       CLOUDY    50  39  66 E3        30.37R
$$



USA.gov is the U.S. government's official web portal to all federal, state and local government web resources and services.